Time,TemperatureF,DewpointF,PressureIn,WindDirection,WindDirectionDegrees,WindSpeedMPH,WindSpeedGustMPH,Humidity,HourlyPrecipIn,Conditions,Clouds,dailyrainin,SoftwareType,DateUTC
2013-02-14 00:00:00,34.4,27.0,29.83,SW,217,2.2,6.0,74,0.00,,BKN085,0.00,VWS V14.01,2013-02-14 05:00:00,
2013-02-14 00:05:00,34.3,26.9,29.83,SW,217,4.2,4.2,74,0.00,,SCT085,0.00,VWS V14.01,2013-02-14 05:05:00,
2013-02-14 00:10:00,34.1,26.7,29.83,SW,218,1.2,7.0,74,0.00,,SCT085,0.00,VWS V14.01,2013-02-14 05:10:00,
2013-02-14 00:15:00,34.0,26.6,29.83,SW,218,3.2,5.0,74,0.00,,SCT085,0.00,VWS V14.01,2013-02-14 05:15:00,
2013-02-14 00:20:00,34.0,26.9,29.83,SW,218,5.2,5.2,75,0.00,,SCT085,0.00,VWS V14.01,2013-02-14 05:20:00,
2013-02-14 00:25:00,34.0,26.9,29.83,SW,217,3.2,7.0,75,0.00,,SCT085,0.00,VWS V14.01,2013-02-14 05:25:00,
2013-02-14 00:30:00,33.9,26.8,29.84,SW,217,2.2,7.0,75,0.00,,SCT085,0.00,VWS V14.01,2013-02-14 05:30:00,
2013-02-14 00:35:00,33.9,26.8,29.84,SW,217,8.2,8.2,75,0.00,,SCT085,0.00,VWS V14.01,2013-02-14 05:35:00,
2013-02-14 00:40:00,33.9,26.8,29.83,SW,217,2.2,7.0,75,0.00,,SCT085,0.00,VWS V14.01,2013-02-14 05:40:00,
2013-02-14 00:45:00,33.9,27.1,29.83,SW,215,1.2,7.0,76,0.00,,SCT085,0.00,VWS V14.01,2013-02-14 05:45:00,
2013-02-14 00:50:00,33.9,27.1,29.83,SW,217,7.2,7.2,76,0.00,,SCT085,0.00,VWS V14.01,2013-02-14 05:50:00,
2013-02-14 00:55:00,33.8,27.0,29.83,SW,216,4.2,5.0,76,0.00,,SCT085,0.00,VWS V14.01,2013-02-14 05:55:00,
2013-02-14 01:00:00,33.8,27.0,29.83,SW,216,3.2,5.0,76,0.00,,CLR,0.00,VWS V14.01,2013-02-14 06:00:00,
2013-02-14 01:05:00,33.7,27.3,29.83,SW,215,3.2,5.0,77,0.00,,CLR,0.00,VWS V14.01,2013-02-14 06:05:00,
2013-02-14 01:10:00,33.7,27.3,29.83,SW,216,2.2,5.0,77,0.00,,CLR,0.00,VWS V14.01,2013-02-14 06:10:00,
2013-02-14 01:15:00,33.7,27.6,29.83,SW,217,3.2,9.0,78,0.00,,CLR,0.00,VWS V14.01,2013-02-14 06:15:00,
2013-02-14 01:20:00,33.7,27.6,29.83,SW,218,5.2,9.0,78,0.00,,CLR,0.00,VWS V14.01,2013-02-14 06:20:00,
2013-02-14 01:25:00,33.7,27.6,29.83,SW,218,2.2,6.0,78,0.00,,CLR,0.00,VWS V14.01,2013-02-14 06:25:00,
2013-02-14 01:30:00,33.7,27.6,29.83,SW,218,6.2,7.0,78,0.00,,CLR,0.00,VWS V14.01,2013-02-14 06:30:00,
2013-02-14 01:35:00,33.6,27.5,29.83,SSW,212,3.2,10.0,78,0.00,,CLR,0.00,VWS V14.01,2013-02-14 06:35:00,
2013-02-14 01:40:00,33.8,28.0,29.83,SW,214,8.2,10.0,79,0.00,,CLR,0.00,VWS V14.01,2013-02-14 06:40:00,
2013-02-14 01:45:00,33.9,28.1,29.83,SW,214,5.2,7.0,79,0.00,,CLR,0.00,VWS V14.01,2013-02-14 06:45:00,
2013-02-14 01:50:00,34.0,28.2,29.83,SW,215,4.2,8.0,79,0.00,,CLR,0.00,VWS V14.01,2013-02-14 06:50:00,
2013-02-14 01:55:00,34.0,28.2,29.83,SW,216,3.2,6.0,79,0.00,,CLR,0.00,VWS V14.01,2013-02-14 06:55:00,
2013-02-14 02:00:00,34.0,28.2,29.83,SW,221,7.2,11.0,79,0.00,,CLR,0.00,VWS V14.01,2013-02-14 07:00:00,
2013-02-14 02:05:00,34.0,28.2,29.83,SW,221,2.2,5.0,79,0.00,,CLR,0.00,VWS V14.01,2013-02-14 07:05:00,
2013-02-14 02:10:00,33.9,28.1,29.83,SSW,211,3.2,7.0,79,0.00,,CLR,0.00,VWS V14.01,2013-02-14 07:10:00,
2013-02-14 02:15:00,33.9,28.1,29.83,SSW,211,4.2,6.0,79,0.00,,CLR,0.00,VWS V14.01,2013-02-14 07:15:00,
2013-02-14 02:20:00,33.8,28.0,29.82,SSW,211,4.2,7.0,79,0.00,,CLR,0.00,VWS V14.01,2013-02-14 07:20:00,
2013-02-14 02:25:00,33.8,28.0,29.83,SSW,211,6.2,6.2,79,0.00,,CLR,0.00,VWS V14.01,2013-02-14 07:25:00,
2013-02-14 02:30:00,33.7,27.9,29.83,SSW,212,4.2,7.0,79,0.00,,CLR,0.00,VWS V14.01,2013-02-14 07:30:00,
2013-02-14 02:35:00,33.7,28.2,29.82,SSW,212,7.2,7.2,80,0.00,,CLR,0.00,VWS V14.01,2013-02-14 07:35:00,
2013-02-14 02:40:00,33.7,28.2,29.82,SSW,213,1.2,7.0,80,0.00,,CLR,0.00,VWS V14.01,2013-02-14 07:40:00,
2013-02-14 02:45:00,33.6,28.1,29.83,SSW,213,5.2,7.0,80,0.00,,CLR,0.00,VWS V14.01,2013-02-14 07:45:00,
2013-02-14 02:50:00,33.6,28.1,29.82,SSW,213,5.2,7.0,80,0.00,,CLR,0.00,VWS V14.01,2013-02-14 07:50:00,
2013-02-14 02:55:00,33.6,28.1,29.82,SSW,213,6.2,7.0,80,0.00,,CLR,0.00,VWS V14.01,2013-02-14 07:55:00,
2013-02-14 03:00:00,33.6,28.1,29.82,SSW,213,4.2,7.0,80,0.00,,CLR,0.00,VWS V14.01,2013-02-14 08:00:00,
2013-02-14 03:05:00,33.6,28.4,29.83,SSW,213,3.2,6.0,81,0.00,,CLR,0.00,VWS V14.01,2013-02-14 08:05:00,
2013-02-14 03:10:00,33.6,28.4,29.83,SW,214,6.2,7.0,81,0.00,,CLR,0.00,VWS V14.01,2013-02-14 08:10:00,
2013-02-14 03:15:00,33.6,28.4,29.83,SW,215,6.2,8.0,81,0.00,,CLR,0.00,VWS V14.01,2013-02-14 08:15:00,
2013-02-14 03:20:00,33.6,28.4,29.83,SW,216,5.2,8.0,81,0.00,,CLR,0.00,VWS V14.01,2013-02-14 08:20:00,
2013-02-14 03:25:00,33.6,28.4,29.83,SW,215,5.2,8.0,81,0.00,,CLR,0.00,VWS V14.01,2013-02-14 08:25:00,
2013-02-14 03:30:00,33.6,28.4,29.83,SW,217,5.2,8.0,81,0.00,,CLR,0.00,VWS V14.01,2013-02-14 08:30:00,
2013-02-14 03:35:00,33.5,28.3,29.83,SW,217,4.2,7.0,81,0.00,,CLR,0.00,VWS V14.01,2013-02-14 08:35:00,
2013-02-14 03:40:00,33.5,28.3,29.82,SW,217,5.2,7.0,81,0.00,,CLR,0.00,VWS V14.01,2013-02-14 08:40:00,
2013-02-14 03:45:00,33.5,28.3,29.82,SW,220,6.2,10.0,81,0.00,,CLR,0.00,VWS V14.01,2013-02-14 08:45:00,
2013-02-14 03:50:00,33.5,28.3,29.82,SW,219,4.2,10.0,81,0.00,,CLR,0.00,VWS V14.01,2013-02-14 08:50:00,
2013-02-14 03:55:00,33.4,28.2,29.82,SW,220,3.2,5.0,81,0.00,,CLR,0.00,VWS V14.01,2013-02-14 08:55:00,
2013-02-14 04:00:00,33.4,28.5,29.82,SW,221,3.2,8.0,82,0.00,,BKN090,0.00,VWS V14.01,2013-02-14 09:00:00,
2013-02-14 04:06:00,33.3,28.4,29.82,SW,221,7.2,7.2,82,0.00,,BKN090,0.00,VWS V14.01,2013-02-14 09:06:00,
2013-02-14 04:11:00,33.2,28.3,29.81,SW,221,4.2,7.0,82,0.00,,BKN090,0.00,VWS V14.01,2013-02-14 09:11:00,
2013-02-14 04:16:00,33.2,28.3,29.81,SW,221,3.2,7.0,82,0.00,,BKN090,0.00,VWS V14.01,2013-02-14 09:16:00,
2013-02-14 04:21:00,33.1,28.2,29.82,SW,221,3.2,7.0,82,0.00,,BKN090,0.00,VWS V14.01,2013-02-14 09:21:00,
2013-02-14 04:26:00,33.2,28.6,29.81,SW,221,1.2,7.0,83,0.00,,BKN090,0.00,VWS V14.01,2013-02-14 09:26:00,
2013-02-14 04:31:00,33.2,28.6,29.82,SW,223,6.2,8.0,83,0.00,,BKN090,0.00,VWS V14.01,2013-02-14 09:31:00,
2013-02-14 04:36:00,33.2,28.6,29.81,SW,225,5.2,11.0,83,0.00,,BKN090,0.00,VWS V14.01,2013-02-14 09:36:00,
2013-02-14 04:41:00,33.1,28.5,29.81,SSW,210,3.2,11.0,83,0.00,,BKN090,0.00,VWS V14.01,2013-02-14 09:41:00,
2013-02-14 04:46:00,33.1,28.5,29.81,SSW,211,6.2,6.2,83,0.00,,BKN090,0.00,VWS V14.01,2013-02-14 09:46:00,
2013-02-14 04:51:00,33.2,28.6,29.81,SSW,211,5.2,5.2,83,0.00,,BKN090,0.00,VWS V14.01,2013-02-14 09:51:00,
2013-02-14 04:56:00,33.2,28.6,29.82,SSW,210,2.2,6.0,83,0.00,,BKN090,0.00,VWS V14.01,2013-02-14 09:56:00,
2013-02-14 05:01:00,33.2,28.6,29.82,SSW,210,5.2,6.0,83,0.00,,BKN120,0.00,VWS V14.01,2013-02-14 10:01:00,
2013-02-14 05:06:00,33.3,28.7,29.82,SSW,211,4.2,7.0,83,0.00,,BKN120,0.00,VWS V14.01,2013-02-14 10:06:00,
2013-02-14 05:11:00,33.4,29.1,29.82,SSW,211,3.2,7.0,84,0.00,,BKN120,0.00,VWS V14.01,2013-02-14 10:11:00,
2013-02-14 05:16:00,33.4,29.1,29.82,SSW,212,7.2,7.2,84,0.00,,BKN120,0.00,VWS V14.01,2013-02-14 10:16:00,
2013-02-14 05:21:00,33.6,29.3,29.82,SSW,213,5.2,7.0,84,0.00,,BKN120,0.00,VWS V14.01,2013-02-14 10:21:00,
2013-02-14 05:26:00,33.6,29.3,29.82,SSW,211,7.2,7.2,84,0.00,,BKN120,0.00,VWS V14.01,2013-02-14 10:26:00,
2013-02-14 05:31:00,33.7,29.4,29.82,SSW,210,7.2,7.2,84,0.00,,BKN120,0.00,VWS V14.01,2013-02-14 10:31:00,
2013-02-14 05:36:00,33.8,29.5,29.82,SSW,210,5.2,6.0,84,0.00,,BKN120,0.00,VWS V14.01,2013-02-14 10:36:00,
2013-02-14 05:41:00,33.8,29.5,29.82,SSW,209,3.2,6.0,84,0.00,,BKN120,0.00,VWS V14.01,2013-02-14 10:41:00,
2013-02-14 05:46:00,33.9,29.6,29.82,SSW,209,5.2,7.0,84,0.00,,BKN120,0.00,VWS V14.01,2013-02-14 10:46:00,
2013-02-14 05:51:00,33.9,29.6,29.81,SSW,210,6.2,7.0,84,0.00,,BKN120,0.00,VWS V14.01,2013-02-14 10:51:00,
2013-02-14 05:56:00,33.9,29.6,29.81,SSW,210,2.2,7.0,84,0.00,,BKN120,0.00,VWS V14.01,2013-02-14 10:56:00,
2013-02-14 06:01:00,34.0,29.7,29.81,SSW,211,6.2,7.0,84,0.00,,OVC100,0.00,VWS V14.01,2013-02-14 11:01:00,
2013-02-14 06:06:00,34.0,29.7,29.82,SSW,211,5.2,7.0,84,0.00,,OVC100,0.00,VWS V14.01,2013-02-14 11:06:00,
2013-02-14 06:11:00,34.1,29.8,29.81,SSW,210,7.2,7.2,84,0.00,,OVC100,0.00,VWS V14.01,2013-02-14 11:11:00,
2013-02-14 06:16:00,34.1,29.8,29.82,SSW,211,5.2,7.0,84,0.00,,OVC100,0.00,VWS V14.01,2013-02-14 11:16:00,
2013-02-14 06:21:00,34.1,29.8,29.81,SSW,211,3.2,7.0,84,0.00,,OVC100,0.00,VWS V14.01,2013-02-14 11:21:00,
2013-02-14 06:26:00,34.1,29.8,29.81,SSW,211,1.2,7.0,84,0.00,,OVC100,0.00,VWS V14.01,2013-02-14 11:26:00,
2013-02-14 06:31:00,34.1,29.8,29.81,SSW,213,2.2,7.0,84,0.00,,OVC100,0.00,VWS V14.01,2013-02-14 11:31:00,
2013-02-14 06:36:00,34.1,29.8,29.81,SSW,213,4.2,6.0,84,0.00,,OVC100,0.00,VWS V14.01,2013-02-14 11:36:00,
2013-02-14 06:41:00,34.1,29.8,29.81,SSW,213,1.2,7.0,84,0.00,,OVC100,0.00,VWS V14.01,2013-02-14 11:41:00,
2013-02-14 06:46:00,34.2,29.9,29.82,SSW,213,5.2,7.0,84,0.00,,OVC100,0.00,VWS V14.01,2013-02-14 11:46:00,
2013-02-14 06:51:00,34.2,29.9,29.82,SSW,210,5.2,7.0,84,0.00,,OVC100,0.00,VWS V14.01,2013-02-14 11:51:00,
2013-02-14 06:56:00,34.2,29.9,29.82,SSW,211,4.2,8.0,84,0.00,,OVC100,0.00,VWS V14.01,2013-02-14 11:56:00,
2013-02-14 07:01:00,34.2,29.9,29.81,SSW,211,5.2,8.0,84,0.00,,FEW075,0.00,VWS V14.01,2013-02-14 12:01:00,
2013-02-14 07:06:00,34.2,29.9,29.82,SSW,207,6.2,7.0,84,0.00,,FEW075,0.00,VWS V14.01,2013-02-14 12:06:00,
2013-02-14 07:11:00,34.2,30.2,29.81,SSW,207,6.2,7.0,85,0.00,,FEW075,0.00,VWS V14.01,2013-02-14 12:11:00,
2013-02-14 07:16:00,34.3,30.3,29.81,SSW,203,2.2,8.0,85,0.00,,FEW075,0.00,VWS V14.01,2013-02-14 12:16:00,
2013-02-14 07:21:00,34.3,30.3,29.81,SSW,196,2.2,8.0,85,0.00,,FEW075,0.00,VWS V14.01,2013-02-14 12:21:00,
2013-02-14 07:26:00,34.3,30.3,29.81,SSE,167,3.2,9.0,85,0.00,,FEW075,0.00,VWS V14.01,2013-02-14 12:26:00,
2013-02-14 07:31:00,34.3,30.3,29.81,South,169,4.2,9.0,85,0.00,,FEW075,0.00,VWS V14.01,2013-02-14 12:31:00,
2013-02-14 07:36:00,34.3,30.3,29.81,SSW,200,5.2,8.0,85,0.00,,FEW075,0.00,VWS V14.01,2013-02-14 12:36:00,
2013-02-14 07:41:00,34.3,30.3,29.81,SSW,200,2.2,8.0,85,0.00,,FEW075,0.00,VWS V14.01,2013-02-14 12:41:00,
2013-02-14 07:46:00,34.3,30.3,29.80,SSW,199,2.2,6.0,85,0.00,,FEW075,0.00,VWS V14.01,2013-02-14 12:46:00,
2013-02-14 07:51:00,34.3,30.3,29.80,SSW,202,3.2,6.0,85,0.00,,FEW075,0.00,VWS V14.01,2013-02-14 12:51:00,
2013-02-14 07:56:00,34.3,30.3,29.80,SSE,168,4.2,8.0,85,0.00,,FEW075,0.00,VWS V14.01,2013-02-14 12:56:00,
2013-02-14 08:01:00,34.4,30.4,29.81,South,171,3.2,8.0,85,0.00,,OVC100,0.00,VWS V14.01,2013-02-14 13:01:00,
2013-02-14 08:06:00,34.4,30.4,29.80,South,171,3.2,3.2,85,0.00,,OVC100,0.00,VWS V14.01,2013-02-14 13:06:00,
2013-02-14 08:11:00,34.4,30.4,29.80,South,188,5.2,11.0,85,0.00,,OVC100,0.00,VWS V14.01,2013-02-14 13:11:00,
2013-02-14 08:16:00,34.5,30.5,29.80,SSW,207,8.2,9.0,85,0.00,,OVC100,0.00,VWS V14.01,2013-02-14 13:16:00,
2013-02-14 08:21:00,34.7,30.7,29.80,South,187,4.2,9.0,85,0.00,,OVC100,0.00,VWS V14.01,2013-02-14 13:21:00,
2013-02-14 08:26:00,34.7,30.7,29.80,SSW,210,5.2,12.0,85,0.00,,OVC100,0.00,VWS V14.01,2013-02-14 13:26:00,
2013-02-14 08:31:00,34.8,30.8,29.80,SSW,195,9.2,12.0,85,0.00,,OVC100,0.00,VWS V14.01,2013-02-14 13:31:00,
2013-02-14 08:36:00,34.8,30.5,29.80,SSW,206,8.2,12.0,84,0.00,,OVC100,0.00,VWS V14.01,2013-02-14 13:36:00,
2013-02-14 08:41:00,34.9,30.9,29.80,SSW,213,7.2,12.0,85,0.00,,OVC100,0.00,VWS V14.01,2013-02-14 13:41:00,
2013-02-14 08:46:00,35.0,31.0,29.80,SW,214,1.2,8.0,85,0.00,,OVC100,0.00,VWS V14.01,2013-02-14 13:46:00,
2013-02-14 08:51:00,35.0,31.0,29.80,South,183,5.2,9.0,85,0.00,,OVC100,0.00,VWS V14.01,2013-02-14 13:51:00,
2013-02-14 08:56:00,35.0,31.0,29.80,SSW,199,7.2,11.0,85,0.00,,OVC100,0.00,VWS V14.01,2013-02-14 13:56:00,
2013-02-14 09:01:00,35.2,31.1,29.80,SSW,212,3.2,11.0,85,0.00,,OVC110,0.00,VWS V14.01,2013-02-14 14:01:00,
2013-02-14 09:06:00,35.4,31.4,29.79,SW,221,7.2,9.0,85,0.00,,OVC110,0.00,VWS V14.01,2013-02-14 14:06:00,
2013-02-14 09:11:00,35.5,31.1,29.80,SSW,205,5.2,10.0,84,0.00,,OVC110,0.00,VWS V14.01,2013-02-14 14:11:00,
2013-02-14 09:16:00,35.6,31.2,29.79,South,173,8.2,13.0,84,0.00,,OVC110,0.00,VWS V14.01,2013-02-14 14:16:00,
2013-02-14 09:21:00,35.7,31.4,29.79,South,191,4.2,4.2,84,0.00,,OVC110,0.00,VWS V14.01,2013-02-14 14:21:00,
2013-02-14 09:26:00,35.8,31.5,29.79,SSW,199,5.2,6.0,84,0.00,,OVC110,0.00,VWS V14.01,2013-02-14 14:26:00,
2013-02-14 09:31:00,35.9,31.5,29.79,SSW,209,3.2,13.0,84,0.00,,OVC110,0.00,VWS V14.01,2013-02-14 14:31:00,
2013-02-14 09:36:00,36.0,31.6,29.80,SSW,206,8.2,12.0,84,0.00,,OVC110,0.00,VWS V14.01,2013-02-14 14:36:00,
2013-02-14 09:41:00,36.1,31.7,29.80,SSW,192,5.2,12.0,84,0.00,,OVC110,0.00,VWS V14.01,2013-02-14 14:41:00,
2013-02-14 09:46:00,36.1,31.7,29.80,WSW,241,5.2,10.0,84,0.00,,OVC110,0.00,VWS V14.01,2013-02-14 14:46:00,
2013-02-14 09:51:00,36.1,31.7,29.80,SW,214,8.2,8.2,84,0.00,,OVC110,0.00,VWS V14.01,2013-02-14 14:51:00,
2013-02-14 09:56:00,36.2,31.8,29.80,SSW,200,5.2,8.0,84,0.00,,OVC110,0.00,VWS V14.01,2013-02-14 14:56:00,
2013-02-14 10:01:00,36.2,31.8,29.80,SW,227,2.2,2.2,84,0.00,,BKN110,0.00,VWS V14.01,2013-02-14 15:01:00,
2013-02-14 10:06:00,36.6,32.2,29.80,South,191,4.2,10.0,84,0.00,,BKN110,0.00,VWS V14.01,2013-02-14 15:06:00,
2013-02-14 10:11:00,36.8,32.4,29.80,SSW,207,6.2,7.0,84,0.00,,BKN110,0.00,VWS V14.01,2013-02-14 15:11:00,
2013-02-14 10:16:00,37.0,32.6,29.79,SW,221,6.2,8.0,84,0.00,,BKN110,0.00,VWS V14.01,2013-02-14 15:16:00,
2013-02-14 10:21:00,37.2,32.5,29.79,SSW,207,4.2,7.0,83,0.00,,BKN110,0.00,VWS V14.01,2013-02-14 15:21:00,
2013-02-14 10:26:00,37.6,32.9,29.79,SW,215,6.2,11.0,83,0.00,,BKN110,0.00,VWS V14.01,2013-02-14 15:26:00,
2013-02-14 10:31:00,38.1,33.4,29.79,SW,225,9.2,9.2,83,0.00,,BKN110,0.00,VWS V14.01,2013-02-14 15:31:00,
2013-02-14 10:36:00,38.5,33.8,29.79,SW,229,6.2,17.0,83,0.00,,BKN110,0.00,VWS V14.01,2013-02-14 15:36:00,
2013-02-14 10:41:00,38.7,33.7,29.79,SSW,198,10.2,10.2,82,0.00,,BKN110,0.00,VWS V14.01,2013-02-14 15:41:00,
2013-02-14 10:46:00,38.8,33.5,29.79,WSW,241,15.2,15.2,81,0.00,,BKN110,0.00,VWS V14.01,2013-02-14 15:46:00,
2013-02-14 10:51:00,39.0,33.7,29.78,SW,231,8.2,8.2,81,0.00,,BKN110,0.00,VWS V14.01,2013-02-14 15:51:00,
2013-02-14 10:56:00,39.6,34.3,29.79,WSW,242,11.2,11.2,81,0.00,,BKN110,0.00,VWS V14.01,2013-02-14 15:56:00,
2013-02-14 11:01:00,40.3,34.9,29.79,SW,233,8.2,8.2,81,0.00,,BKN090,0.00,VWS V14.01,2013-02-14 16:01:00,
2013-02-14 11:06:00,40.7,34.7,29.79,WSW,244,12.2,16.0,79,0.00,,BKN090,0.00,VWS V14.01,2013-02-14 16:06:00,
2013-02-14 11:11:00,40.9,34.6,29.79,SW,218,8.2,8.2,78,0.00,,BKN090,0.00,VWS V14.01,2013-02-14 16:11:00,
2013-02-14 11:16:00,40.8,34.2,29.79,SSW,210,11.2,18.0,77,0.00,,BKN090,0.00,VWS V14.01,2013-02-14 16:16:00,
2013-02-14 11:21:00,40.8,34.2,29.79,SW,228,15.2,15.2,77,0.00,,BKN090,0.00,VWS V14.01,2013-02-14 16:21:00,
2013-02-14 11:26:00,40.7,33.7,29.80,SW,225,13.2,22.0,76,0.00,,BKN090,0.00,VWS V14.01,2013-02-14 16:26:00,
2013-02-14 11:31:00,40.6,33.6,29.79,SSW,192,6.2,11.0,76,0.00,,BKN090,0.00,VWS V14.01,2013-02-14 16:31:00,
2013-02-14 11:37:00,40.6,34.0,29.79,WSW,246,12.2,15.0,77,0.00,,BKN090,0.00,VWS V14.01,2013-02-14 16:37:00,
2013-02-14 11:42:00,40.8,34.2,29.79,SW,230,12.2,12.2,77,0.00,,BKN090,0.00,VWS V14.01,2013-02-14 16:42:00,
2013-02-14 11:47:00,41.0,34.3,29.79,SSW,213,11.2,17.0,77,0.00,,BKN090,0.00,VWS V14.01,2013-02-14 16:47:00,
2013-02-14 11:52:00,41.3,34.3,29.79,SW,226,13.2,13.2,76,0.00,,BKN090,0.00,VWS V14.01,2013-02-14 16:52:00,
2013-02-14 11:57:00,41.7,35.0,29.79,South,187,9.2,19.0,77,0.00,,BKN090,0.00,VWS V14.01,2013-02-14 16:57:00,
2013-02-14 12:02:00,42.2,34.9,29.79,SW,234,10.2,12.0,75,0.00,,BKN060,0.00,VWS V14.01,2013-02-14 17:02:00,
2013-02-14 12:07:00,42.7,35.3,29.79,SSW,199,6.2,18.0,75,0.00,,BKN060,0.00,VWS V14.01,2013-02-14 17:07:00,
2013-02-14 12:12:00,42.9,34.8,29.79,SW,225,9.2,12.0,73,0.00,,BKN060,0.00,VWS V14.01,2013-02-14 17:12:00,
2013-02-14 12:17:00,42.8,34.8,29.79,SW,215,14.2,18.0,73,0.00,,BKN060,0.00,VWS V14.01,2013-02-14 17:17:00,
2013-02-14 12:22:00,42.6,34.9,29.79,SW,231,12.2,15.0,74,0.00,,BKN060,0.00,VWS V14.01,2013-02-14 17:22:00,
2013-02-14 12:27:00,42.6,34.9,29.79,WSW,250,18.2,18.2,74,0.00,,BKN060,0.00,VWS V14.01,2013-02-14 17:27:00,
2013-02-14 12:32:00,42.8,35.1,29.79,WSW,254,17.2,17.2,74,0.00,,BKN060,0.00,VWS V14.01,2013-02-14 17:32:00,
2013-02-14 12:37:00,43.1,35.7,29.78,WSW,251,17.2,20.0,75,0.00,,BKN060,0.00,VWS V14.01,2013-02-14 17:37:00,
2013-02-14 12:42:00,43.1,35.4,29.78,SW,235,11.2,11.2,74,0.00,,BKN060,0.00,VWS V14.01,2013-02-14 17:42:00,
2013-02-14 12:47:00,43.2,35.5,29.78,SW,224,10.2,18.0,74,0.00,,BKN060,0.00,VWS V14.01,2013-02-14 17:47:00,
2013-02-14 12:52:00,43.5,35.8,29.78,WSW,250,19.2,19.2,74,0.00,,BKN060,0.00,VWS V14.01,2013-02-14 17:52:00,
2013-02-14 12:57:00,43.7,35.3,29.78,WSW,242,16.2,18.0,72,0.00,,BKN060,0.00,VWS V14.01,2013-02-14 17:57:00,
2013-02-14 13:02:00,43.8,35.0,29.78,WSW,239,10.2,13.0,71,0.00,,OVC055,0.00,VWS V14.01,2013-02-14 18:02:00,
2013-02-14 13:07:00,43.9,35.5,29.77,WSW,245,12.2,23.0,72,0.00,,OVC055,0.00,VWS V14.01,2013-02-14 18:07:00,
2013-02-14 13:12:00,44.0,35.2,29.77,WSW,250,18.2,18.2,71,0.00,,OVC055,0.00,VWS V14.01,2013-02-14 18:12:00,
2013-02-14 13:17:00,44.1,35.3,29.78,SW,233,9.2,20.0,71,0.00,,OVC055,0.00,VWS V14.01,2013-02-14 18:17:00,
2013-02-14 13:22:00,44.6,35.4,29.77,SSW,209,17.2,17.2,70,0.00,,OVC055,0.00,VWS V14.01,2013-02-14 18:22:00,
2013-02-14 13:27:00,44.6,35.4,29.77,WSW,240,10.2,22.0,70,0.00,,OVC055,0.00,VWS V14.01,2013-02-14 18:27:00,
2013-02-14 13:32:00,44.8,35.6,29.77,WSW,239,12.2,19.0,70,0.00,,OVC055,0.00,VWS V14.01,2013-02-14 18:32:00,
2013-02-14 13:37:00,44.9,35.7,29.76,WSW,252,13.2,23.0,70,0.00,,OVC055,0.00,VWS V14.01,2013-02-14 18:37:00,
2013-02-14 13:42:00,45.1,35.5,29.76,WSW,249,21.2,22.0,69,0.00,,OVC055,0.00,VWS V14.01,2013-02-14 18:42:00,
2013-02-14 13:47:00,45.2,35.3,29.77,WSW,258,15.2,22.0,68,0.00,,OVC055,0.00,VWS V14.01,2013-02-14 18:47:00,
2013-02-14 13:52:00,45.0,35.1,29.77,West,263,19.2,20.0,68,0.00,,OVC055,0.00,VWS V14.01,2013-02-14 18:52:00,
2013-02-14 13:57:00,44.5,34.6,29.77,West,265,19.2,20.0,68,0.00,,OVC055,0.00,VWS V14.01,2013-02-14 18:57:00,
2013-02-14 14:02:00,44.2,34.3,29.77,WSW,256,13.2,20.0,68,0.00,,OVC022,0.00,VWS V14.01,2013-02-14 19:02:00,
2013-02-14 14:07:00,44.1,34.6,29.77,West,260,17.2,23.0,69,0.00,,OVC022,0.00,VWS V14.01,2013-02-14 19:07:00,
2013-02-14 14:12:00,44.1,34.6,29.77,WSW,256,19.2,24.0,69,0.00,,OVC022,0.00,VWS V14.01,2013-02-14 19:12:00,
2013-02-14 14:17:00,43.9,33.7,29.77,WSW,254,16.2,27.0,67,0.00,,OVC022,0.00,VWS V14.01,2013-02-14 19:17:00,
2013-02-14 14:22:00,43.7,33.8,29.77,WSW,251,18.2,26.0,68,0.00,,OVC022,0.00,VWS V14.01,2013-02-14 19:22:00,
2013-02-14 14:27:00,43.3,33.8,29.78,West,276,15.2,26.0,69,0.00,,OVC022,0.00,VWS V14.01,2013-02-14 19:27:00,
2013-02-14 14:32:00,42.8,33.7,29.78,West,281,14.2,16.0,70,0.00,,OVC022,0.00,VWS V14.01,2013-02-14 19:32:00,
2013-02-14 14:37:00,42.5,33.4,29.79,West,277,11.2,19.0,70,0.00,,OVC022,0.00,VWS V14.01,2013-02-14 19:37:00,
2013-02-14 14:42:00,42.5,33.8,29.79,West,279,14.2,15.0,71,0.00,,OVC022,0.00,VWS V14.01,2013-02-14 19:42:00,
2013-02-14 14:47:00,42.6,33.2,29.79,West,276,10.2,23.0,69,0.00,,OVC022,0.00,VWS V14.01,2013-02-14 19:47:00,
2013-02-14 14:52:00,42.3,32.5,29.79,WNW,286,14.2,18.0,68,0.00,,OVC022,0.00,VWS V14.01,2013-02-14 19:52:00,
2013-02-14 14:57:00,42.8,33.7,29.79,West,271,11.2,19.0,70,0.00,,OVC022,0.00,VWS V14.01,2013-02-14 19:57:00,
2013-02-14 15:02:00,42.7,32.9,29.79,West,269,20.2,20.2,68,0.00,,OVC035,0.00,VWS V14.01,2013-02-14 20:02:00,
2013-02-14 15:07:00,42.8,33.0,29.80,West,275,13.2,19.0,68,0.00,,OVC035,0.00,VWS V14.01,2013-02-14 20:07:00,
2013-02-14 15:12:00,42.6,32.4,29.80,West,263,18.2,20.0,67,0.00,,OVC035,0.00,VWS V14.01,2013-02-14 20:12:00,
2013-02-14 15:17:00,42.3,32.5,29.80,West,260,16.2,21.0,68,0.00,,OVC035,0.00,VWS V14.01,2013-02-14 20:17:00,
2013-02-14 15:22:00,42.1,32.7,29.80,West,275,15.2,16.0,69,0.00,,OVC035,0.00,VWS V14.01,2013-02-14 20:22:00,
2013-02-14 15:27:00,42.1,32.7,29.80,WSW,257,17.2,18.0,69,0.00,,OVC035,0.00,VWS V14.01,2013-02-14 20:27:00,
2013-02-14 15:32:00,41.8,32.4,29.81,West,274,11.2,16.0,69,0.00,,OVC035,0.00,VWS V14.01,2013-02-14 20:32:00,
2013-02-14 15:37:00,41.5,32.1,29.81,West,277,22.2,22.2,69,0.00,,OVC035,0.00,VWS V14.01,2013-02-14 20:37:00,
2013-02-14 15:42:00,41.0,31.6,29.82,West,281,22.2,22.2,69,0.00,,OVC035,0.00,VWS V14.01,2013-02-14 20:42:00,
2013-02-14 15:47:00,40.5,31.9,29.83,WNW,282,10.2,21.0,71,0.00,,OVC035,0.00,VWS V14.01,2013-02-14 20:47:00,
2013-02-14 15:52:00,40.3,31.7,29.83,WNW,284,12.2,13.0,71,0.00,,OVC035,0.00,VWS V14.01,2013-02-14 20:52:00,
2013-02-14 15:57:00,40.0,31.4,29.83,West,275,14.2,22.0,71,0.00,,OVC035,0.00,VWS V14.01,2013-02-14 20:57:00,
2013-02-14 16:02:00,39.7,31.1,29.83,West,264,12.2,22.0,71,0.00,,OVC024,0.00,VWS V14.01,2013-02-14 21:02:00,
2013-02-14 16:07:00,39.4,30.8,29.83,West,266,23.2,25.0,71,0.00,,OVC024,0.00,VWS V14.01,2013-02-14 21:07:00,
2013-02-14 16:12:00,39.1,29.8,29.84,West,263,16.2,30.0,69,0.00,,OVC024,0.00,VWS V14.01,2013-02-14 21:12:00,
2013-02-14 16:17:00,39.1,30.2,29.84,West,267,19.2,30.0,70,0.00,,OVC024,0.00,VWS V14.01,2013-02-14 21:17:00,
2013-02-14 16:22:00,39.3,30.4,29.84,WNW,284,19.2,19.2,70,0.00,,OVC024,0.00,VWS V14.01,2013-02-14 21:22:00,
2013-02-14 16:27:00,39.2,29.9,29.84,WNW,282,17.2,27.0,69,0.00,,OVC024,0.00,VWS V14.01,2013-02-14 21:27:00,
2013-02-14 16:32:00,38.9,29.6,29.85,West,275,20.2,20.2,69,0.00,,OVC024,0.00,VWS V14.01,2013-02-14 21:32:00,
2013-02-14 16:37:00,38.7,29.8,29.85,West,280,15.2,20.0,70,0.00,,OVC024,0.00,VWS V14.01,2013-02-14 21:37:00,
2013-02-14 16:42:00,38.7,29.8,29.85,WNW,284,19.2,19.2,70,0.00,,OVC024,0.00,VWS V14.01,2013-02-14 21:42:00,
2013-02-14 16:47:00,38.7,29.4,29.85,West,263,18.2,19.0,69,0.00,,OVC024,0.00,VWS V14.01,2013-02-14 21:47:00,
2013-02-14 16:52:00,38.7,29.8,29.86,West,275,12.2,23.0,70,0.00,,OVC024,0.00,VWS V14.01,2013-02-14 21:52:00,
2013-02-14 16:57:00,38.6,29.7,29.86,West,274,17.2,23.0,70,0.00,,OVC024,0.00,VWS V14.01,2013-02-14 21:57:00,
2013-02-14 17:03:00,38.6,30.0,29.86,West,265,9.2,15.0,71,0.00,,OVC027,0.00,VWS V14.01,2013-02-14 22:03:00,
2013-02-14 17:08:00,38.6,30.0,29.86,West,269,10.2,16.0,71,0.00,,OVC027,0.00,VWS V14.01,2013-02-14 22:08:00,
2013-02-14 17:12:00,38.5,29.9,29.87,West,273,8.2,15.0,71,0.00,,OVC027,0.00,VWS V14.01,2013-02-14 22:12:00,
2013-02-14 17:18:00,38.5,30.3,29.87,West,276,9.2,19.0,72,0.00,,OVC027,0.00,VWS V14.01,2013-02-14 22:18:00,
2013-02-14 17:23:00,38.5,30.3,29.87,West,277,15.2,18.0,72,0.00,,OVC027,0.00,VWS V14.01,2013-02-14 22:23:00,
2013-02-14 17:28:00,38.5,29.9,29.88,WNW,295,7.2,21.0,71,0.00,,OVC027,0.00,VWS V14.01,2013-02-14 22:28:00,
2013-02-14 17:33:00,38.6,30.0,29.88,West,280,9.2,15.0,71,0.00,,OVC027,0.00,VWS V14.01,2013-02-14 22:33:00,
2013-02-14 17:38:00,38.6,30.0,29.88,West,272,10.2,19.0,71,0.00,,OVC027,0.00,VWS V14.01,2013-02-14 22:38:00,
2013-02-14 17:43:00,38.6,29.7,29.89,WNW,286,15.2,17.0,70,0.00,,OVC027,0.00,VWS V14.01,2013-02-14 22:43:00,
2013-02-14 17:48:00,38.6,29.7,29.89,West,271,9.2,17.0,70,0.00,,OVC027,0.00,VWS V14.01,2013-02-14 22:48:00,
2013-02-14 17:53:00,38.6,29.7,29.89,West,277,12.2,13.0,70,0.00,,OVC027,0.00,VWS V14.01,2013-02-14 22:53:00,
2013-02-14 17:58:00,38.5,29.6,29.89,West,279,8.2,14.0,70,0.00,,OVC027,0.00,VWS V14.01,2013-02-14 22:58:00,
2013-02-14 18:03:00,38.5,29.9,29.89,WNW,286,10.2,14.0,71,0.00,,OVC029,0.00,VWS V14.01,2013-02-14 23:03:00,
2013-02-14 18:08:00,38.4,29.8,29.90,West,272,8.2,14.0,71,0.00,,OVC029,0.00,VWS V14.01,2013-02-14 23:08:00,
2013-02-14 18:13:00,38.4,29.8,29.90,West,281,11.2,16.0,71,0.00,,OVC029,0.00,VWS V14.01,2013-02-14 23:13:00,
2013-02-14 18:18:00,38.3,29.7,29.90,West,277,11.2,17.0,71,0.00,,OVC029,0.00,VWS V14.01,2013-02-14 23:18:00,
2013-02-14 18:23:00,38.3,29.4,29.91,West,272,7.2,13.0,70,0.00,,OVC029,0.00,VWS V14.01,2013-02-14 23:23:00,
2013-02-14 18:28:00,38.3,29.7,29.91,WNW,291,13.2,20.0,71,0.00,,OVC029,0.00,VWS V14.01,2013-02-14 23:28:00,
2013-02-14 18:33:00,38.3,29.7,29.91,WNW,283,15.2,15.2,71,0.00,,OVC029,0.00,VWS V14.01,2013-02-14 23:33:00,
2013-02-14 18:38:00,38.2,29.6,29.91,West,275,13.2,18.0,71,0.00,,OVC029,0.00,VWS V14.01,2013-02-14 23:38:00,
2013-02-14 18:43:00,38.2,30.0,29.92,West,273,13.2,13.2,72,0.00,,OVC029,0.00,VWS V14.01,2013-02-14 23:43:00,
2013-02-14 18:48:00,38.1,29.5,29.92,WNW,283,10.2,15.0,71,0.00,,OVC029,0.00,VWS V14.01,2013-02-14 23:48:00,
2013-02-14 18:53:00,38.1,29.5,29.92,WSW,249,15.2,15.2,71,0.00,,OVC029,0.00,VWS V14.01,2013-02-14 23:53:00,
2013-02-14 18:58:00,38.1,29.5,29.92,West,266,9.2,15.0,71,0.00,,OVC029,0.00,VWS V14.01,2013-02-14 23:58:00,
2013-02-14 19:03:00,38.1,29.5,29.93,West,270,13.2,15.0,71,0.00,,OVC029,0.00,VWS V14.01,2013-02-15 00:03:00,
2013-02-14 19:08:00,38.1,29.5,29.93,West,271,10.2,15.0,71,0.00,,OVC029,0.00,VWS V14.01,2013-02-15 00:08:00,
2013-02-14 19:13:00,38.0,29.8,29.93,West,269,11.2,13.0,72,0.00,,OVC029,0.00,VWS V14.01,2013-02-15 00:13:00,
2013-02-14 19:18:00,38.0,29.8,29.93,West,281,9.2,14.0,72,0.00,,OVC029,0.00,VWS V14.01,2013-02-15 00:18:00,
2013-02-14 19:23:00,38.0,29.8,29.94,West,275,6.2,14.0,72,0.00,,OVC029,0.00,VWS V14.01,2013-02-15 00:23:00,
2013-02-14 19:28:00,38.0,30.1,29.94,West,270,9.2,14.0,73,0.00,,OVC029,0.00,VWS V14.01,2013-02-15 00:28:00,
2013-02-14 19:33:00,37.9,29.7,29.94,WSW,254,14.2,14.2,72,0.00,,OVC029,0.00,VWS V14.01,2013-02-15 00:33:00,
2013-02-14 19:38:00,37.9,29.4,29.94,West,259,6.2,15.0,71,0.00,,OVC029,0.00,VWS V14.01,2013-02-15 00:38:00,
2013-02-14 19:43:00,37.9,29.4,29.95,West,264,10.2,16.0,71,0.00,,OVC029,0.00,VWS V14.01,2013-02-15 00:43:00,
2013-02-14 19:48:00,37.9,29.4,29.95,West,267,8.2,20.0,71,0.00,,OVC029,0.00,VWS V14.01,2013-02-15 00:48:00,
2013-02-14 19:53:00,37.9,29.4,29.95,WSW,255,12.2,12.2,71,0.00,,OVC029,0.00,VWS V14.01,2013-02-15 00:53:00,
2013-02-14 19:58:00,37.9,29.0,29.95,West,267,9.2,15.0,70,0.00,,OVC029,0.00,VWS V14.01,2013-02-15 00:58:00,
2013-02-14 20:03:00,37.9,29.0,29.95,West,265,11.2,11.2,70,0.00,,OVC043,0.00,VWS V14.01,2013-02-15 01:03:00,
2013-02-14 20:08:00,37.8,28.6,29.95,West,281,11.2,14.0,69,0.00,,OVC043,0.00,VWS V14.01,2013-02-15 01:08:00,
2013-02-14 20:13:00,37.8,28.2,29.95,WNW,288,9.2,10.0,68,0.00,,OVC043,0.00,VWS V14.01,2013-02-15 01:13:00,
2013-02-14 20:18:00,37.8,28.2,29.95,West,277,10.2,14.0,68,0.00,,OVC043,0.00,VWS V14.01,2013-02-15 01:18:00,
2013-02-14 20:23:00,37.8,28.2,29.95,WNW,283,12.2,13.0,68,0.00,,OVC043,0.00,VWS V14.01,2013-02-15 01:23:00,
2013-02-14 20:28:00,37.8,28.2,29.95,West,269,11.2,15.0,68,0.00,,OVC043,0.00,VWS V14.01,2013-02-15 01:28:00,
2013-02-14 20:33:00,37.7,28.1,29.95,West,267,9.2,11.0,68,0.00,,OVC043,0.00,VWS V14.01,2013-02-15 01:33:00,
2013-02-14 20:39:00,37.7,28.5,29.96,West,269,3.2,12.0,69,0.00,,OVC043,0.00,VWS V14.01,2013-02-15 01:39:00,
2013-02-14 20:44:00,37.5,28.3,29.95,West,260,9.2,11.0,69,0.00,,OVC043,0.00,VWS V14.01,2013-02-15 01:44:00,
2013-02-14 20:49:00,37.5,28.3,29.96,West,267,9.2,12.0,69,0.00,,OVC043,0.00,VWS V14.01,2013-02-15 01:49:00,
2013-02-14 20:54:00,37.5,28.6,29.96,West,274,9.2,13.0,70,0.00,,OVC043,0.00,VWS V14.01,2013-02-15 01:54:00,
2013-02-14 20:59:00,37.5,28.6,29.96,West,262,10.2,15.0,70,0.00,,OVC043,0.00,VWS V14.01,2013-02-15 01:59:00,
2013-02-14 21:04:00,37.5,29.0,29.96,WSW,258,10.2,11.0,71,0.00,,OVC048,0.00,VWS V14.01,2013-02-15 02:04:00,
2013-02-14 21:09:00,37.5,29.0,29.96,West,261,10.2,14.0,71,0.00,,OVC048,0.00,VWS V14.01,2013-02-15 02:09:00,
2013-02-14 21:14:00,37.5,29.3,29.96,West,267,8.2,13.0,72,0.00,,OVC048,0.00,VWS V14.01,2013-02-15 02:14:00,
2013-02-14 21:19:00,37.4,29.2,29.96,West,267,8.2,13.0,72,0.00,,OVC048,0.00,VWS V14.01,2013-02-15 02:19:00,
2013-02-14 21:24:00,37.4,29.2,29.96,West,273,9.2,11.0,72,0.00,,OVC048,0.00,VWS V14.01,2013-02-15 02:24:00,
2013-02-14 21:29:00,37.3,29.1,29.96,West,274,11.2,13.0,72,0.00,,OVC048,0.00,VWS V14.01,2013-02-15 02:29:00,
2013-02-14 21:34:00,37.4,29.2,29.96,West,272,12.2,15.0,72,0.00,,OVC048,0.00,VWS V14.01,2013-02-15 02:34:00,
2013-02-14 21:39:00,37.4,29.2,29.96,West,279,9.2,15.0,72,0.00,,OVC048,0.00,VWS V14.01,2013-02-15 02:39:00,
2013-02-14 21:44:00,37.4,28.9,29.96,West,279,9.2,15.0,71,0.00,,OVC048,0.00,VWS V14.01,2013-02-15 02:44:00,
2013-02-14 21:49:00,37.5,29.0,29.97,West,275,7.2,15.0,71,0.00,,OVC048,0.00,VWS V14.01,2013-02-15 02:49:00,
2013-02-14 21:54:00,37.4,28.9,29.97,West,281,15.2,15.2,71,0.00,,OVC048,0.00,VWS V14.01,2013-02-15 02:54:00,
2013-02-14 21:59:00,37.4,28.9,29.97,West,276,9.2,15.0,71,0.00,,OVC048,0.00,VWS V14.01,2013-02-15 02:59:00,
2013-02-14 22:04:00,37.4,28.9,29.97,West,275,8.2,12.0,71,0.00,,OVC045,0.00,VWS V14.01,2013-02-15 03:04:00,
2013-02-14 22:09:00,37.3,28.8,29.97,West,279,8.2,12.0,71,0.00,,OVC045,0.00,VWS V14.01,2013-02-15 03:09:00,
2013-02-14 22:14:00,37.2,28.7,29.97,WNW,283,10.2,12.0,71,0.00,,OVC045,0.00,VWS V14.01,2013-02-15 03:14:00,
2013-02-14 22:19:00,37.2,28.7,29.97,West,267,6.2,13.0,71,0.00,,OVC045,0.00,VWS V14.01,2013-02-15 03:19:00,
2013-02-14 22:24:00,37.1,28.9,29.98,West,281,8.2,8.2,72,0.00,,OVC045,0.00,VWS V14.01,2013-02-15 03:24:00,
2013-02-14 22:29:00,37.0,28.8,29.97,West,277,6.2,9.0,72,0.00,,OVC045,0.00,VWS V14.01,2013-02-15 03:29:00,
2013-02-14 22:34:00,36.9,28.7,29.98,West,271,4.2,9.0,72,0.00,,OVC045,0.00,VWS V14.01,2013-02-15 03:34:00,
2013-02-14 22:39:00,36.7,28.5,29.98,West,275,6.2,9.0,72,0.00,,OVC045,0.00,VWS V14.01,2013-02-15 03:39:00,
2013-02-14 22:44:00,36.5,28.4,29.98,WNW,295,5.2,14.0,72,0.00,,OVC045,0.00,VWS V14.01,2013-02-15 03:44:00,
2013-02-14 22:49:00,36.4,27.9,29.98,WNW,289,8.2,14.0,71,0.00,,OVC045,0.00,VWS V14.01,2013-02-15 03:49:00,
2013-02-14 22:54:00,36.3,27.8,29.98,WNW,282,4.2,9.0,71,0.00,,OVC045,0.00,VWS V14.01,2013-02-15 03:54:00,
2013-02-14 22:59:00,36.3,27.8,29.98,NW,313,6.2,9.0,71,0.00,,OVC045,0.00,VWS V14.01,2013-02-15 03:59:00,
2013-02-14 23:04:00,36.2,27.4,29.98,WNW,302,2.2,6.0,70,0.00,,FEW050,0.00,VWS V14.01,2013-02-15 04:04:00,
2013-02-14 23:09:00,36.1,27.3,29.98,WNW,298,3.2,6.0,70,0.00,,FEW050,0.00,VWS V14.01,2013-02-15 04:09:00,
2013-02-14 23:14:00,35.9,27.1,29.98,WNW,298,4.2,4.2,70,0.00,,FEW050,0.00,VWS V14.01,2013-02-15 04:14:00,
2013-02-14 23:19:00,35.6,26.8,29.98,WNW,298,3.2,5.0,70,0.00,,FEW050,0.00,VWS V14.01,2013-02-15 04:19:00,
2013-02-14 23:24:00,35.3,26.5,29.98,WNW,298,4.2,4.2,70,0.00,,FEW050,0.00,VWS V14.01,2013-02-15 04:24:00,
2013-02-14 23:29:00,35.0,26.6,29.98,WNW,298,4.2,5.0,71,0.00,,FEW050,0.00,VWS V14.01,2013-02-15 04:29:00,
2013-02-14 23:34:00,34.7,25.9,29.98,WNW,296,6.2,6.2,70,0.00,,FEW050,0.00,VWS V14.01,2013-02-15 04:34:00,
2013-02-14 23:39:00,34.4,25.6,29.98,WNW,294,5.2,7.0,70,0.00,,FEW050,0.00,VWS V14.01,2013-02-15 04:39:00,
2013-02-14 23:44:00,34.3,25.5,29.98,WNW,293,5.2,6.0,70,0.00,,FEW050,0.00,VWS V14.01,2013-02-15 04:44:00,
2013-02-14 23:49:00,34.1,25.0,29.98,WNW,290,4.2,7.0,69,0.00,,FEW050,0.00,VWS V14.01,2013-02-15 04:49:00,
2013-02-14 23:54:00,34.1,25.0,29.98,WNW,290,4.2,4.2,69,0.00,,FEW050,0.00,VWS V14.01,2013-02-15 04:54:00,
2013-02-14 23:59:00,33.8,24.7,29.98,WNW,290,3.2,5.0,69,0.00,,FEW050,0.00,VWS V14.01,2013-02-15 04:59:00,